Regional Weather Roundup
Issued by NWS Cleveland, OH

Home | Current Version | Previous Version | Graphics & Text | Print | Product List | Glossary On
Versions: 1 2 3 4 5 6 7 8 9 10 11 12 13 14 15 16 17 18 19 20 21 22 23 24 25 26 27 28 29 30 31 32 33 34 35 36 37 38 39 40 41 42 43 44 45 46 47 48 49 50
000
ASUS41 KCLE 250602
RWRCLE
OHIO REGIONAL WEATHER ROUNDUP
NATIONAL WEATHER SERVICE CLEVELAND, OH
200 AM EDT FRI MAY 25 2018

NOTE: "FAIR" INDICATES FEW OR NO CLOUDS BELOW 12,000 FEET WITH NO
SIGNIFICANT WEATHER AND/OR OBSTRUCTIONS TO VISIBILITY.

OHZ001>008-015>018-024>027-034-035-043-044-250700-
   NORTHWEST OHIO

CITY           SKY/WX    TMP DP  RH WIND       PRES   REMARKS
DEFIANCE       FAIR      57  54  89 CALM      30.07F
FINDLAY        FAIR      61  53  75 CALM      30.07F
TOLEDO EXPRESS FAIR      58  55  90 CALM      30.06F
TOLEDO EXEC    FAIR      62  49  62 SE5       30.07F
LIMA           FAIR      62  50  64 S5        30.08F
$$

OHZ009>014-019>023-028>033-038-089-250700-
   NORTHEAST OHIO

CITY           SKY/WX    TMP DP  RH WIND       PRES   REMARKS
CLE-HOPKINS    FAIR      60  51  72 CALM      30.10F
CLE-LAKEFRONT  FAIR      66  47  50 SE9       30.06F
CUY CO. ARPT   NOT AVBL
LORAIN-ELYRIA  FAIR      58  48  69 VRB6      30.09F
ASHTABULA      FAIR      53  51  93 E3        30.09F
AKRON-CANTON   FAIR      62  50  64 CALM      30.10F
WOOSTER        FAIR      55  53  93 CALM      30.10F
MANSFIELD      FAIR      61  53  75 CALM      30.11S
YOUNGSTOWN     FAIR      53  51  93 SE6       30.10S
$$

OHZ042-051>053-060>062-070>072-077>081-250700-
  SOUTHWEST OHIO

CITY           SKY/WX    TMP DP  RH WIND       PRES   REMARKS
CINC-COVINGTON FAIR      64  55  72 CALM      30.07F
CINC-LUNKEN    FAIR      60  60 100 CALM      30.08F
HAMILTON       FAIR      59  58  96 CALM      30.08F
DAYTON         FAIR      64  53  67 SE6       30.09F
WRIGHT-PAT AFB FAIR      61  54  79 CALM      30.08F
DAYTON GENERAL FAIR      68  52  56 CALM      30.08F
WILMINGTON     LGT RAIN  60  56  86 CALM      30.08F
$$

OHZ036-037-039>041-045>050-054>059-063>069-073>076-082>088-250700-
  CENTRAL AND SOUTHEAST OHIO

CITY           SKY/WX    TMP DP  RH WIND       PRES   REMARKS
COLUMBUS       FAIR      62  54  74 CALM      30.08S
OSU AIRPORT    FAIR      61  53  75 CALM      30.08F
BOLTON FIELD   FAIR      60  55  84 CALM      30.09S
RICKENBACK AFB FAIR      61  54  77 MISG      30.07F
NEWARK         FAIR      55  54  96 CALM      30.09S FOG
MARION         FAIR      60  52  74 CALM      30.09F
LANCASTER      FAIR      57  55  93 CALM      30.09S
ZANESVILLE     FAIR      58  55  90 CALM      30.09S
NEW PHILLY     NOT AVBL
$$



USA.gov is the U.S. government's official web portal to all federal, state and local government web resources and services.